Location: Arpaise
(41.0333°N, 14.7333°E)
Time: 16:17:20
(UTC+00:00)

Cosmos 1825 Rocket - Pass Details

Date: 05 July 2020
Orbit: 603 x 631 km, 82.5° (Epoch: 11 August)

Event Time Altitude Azimuth Distance (km) Brightness Sun altitude
Exits shadow 20:10:14 11° 188° (S) 1,933 5.7 -14.4°
Maximum altitude 20:14:30 86° 276° (W) 635 3.6 -14.9°
Drops below altitude 10° 20:19:00 10° 7° (N) 2,018 6.8 -15.5°
Sets 20:21:15 0° 8° (N) 2,932 7.7 -15.7°
